Preview of NWS' New Version of Forecast
This preview is not operational and should not be used for support decisions.

Regional Weather Roundup (RWR)

Issued by Philadelphia/Mt Holly (PHI)

                            
000
ASUS41 KPHI 180012
RWRPHI

REGIONAL WEATHER ROUNDUP
NATIONAL WEATHER SERVICE MOUNT HOLLY NJ
700 PM EST THU JAN 17 2019

NOTE:  "FAIR" INDICATES FEW OR NO CLOUDS BELOW 12,000 FEET WITH NO
SIGNIFICANT WEATHER AND/OR OBSTRUCTIONS TO VISIBILITY.

 * = STATION DOES NOT REPORT PRECIPITATION (E.G. RAIN, SNOW, ETC.) 
        OR FOG.

NJZ015>026-180100-
SOUTHERN NEW JERSEY
  
CITY           SKY/WX    TMP DP  RH WIND       PRES   REMARKS
POMONA         FAIR      28  23  81 CALM      30.29S                  
6HR MIN TEMP:  28; 6HR MAX TEMP:  33;                                

WILDWOOD*      MOCLDY    32  25  75 N3        30.29S                  
MILLVILLE      CLOUDY    29  21  72 NE3       30.29R                  
WRIGHTSTOWN    CLOUDY    27  19  70 NE3       30.27S                  
MOUNT HOLLY    FAIR      29  18  63 CALM      30.30F                  
TRENTON        FAIR      30  18  60 SE6       30.29F WCI  24          
6HR MIN TEMP:  30; 6HR MAX TEMP:  32;                                


$$
NJZ001>014-180100-
NORTHERN NEW JERSEY
  
CITY           SKY/WX    TMP DP  RH WIND       PRES   REMARKS
SUSSEX           N/A     26  12  55 CALM      30.26F                  
ANDOVER*         N/A     28   8  43 S3        30.26F                  
MORRISTOWN     CLOUDY    28  16  59 S5        30.31S WCI  23          
NEWARK         CLOUDY    30  16  56 S3        30.31F                  
TETERBORO      FAIR      31  14  49 S10       30.31S WCI  22          
CALDWELL       FAIR      29  13  51 S7        30.31S WCI  22          
SOMERVILLE     FAIR      29  15  56 CALM      30.28F                  
ALLAIRE*       MOCLDY    30  21  69 CALM      30.31S                  
TOMS RIVER*    MOCLDY    28  22  78 CALM      30.30F                  

$$
PAZ043-044-047-054-055-060>062-066>071-180100-
EASTERN PENNSYLVANIA
  
CITY           SKY/WX    TMP DP  RH WIND       PRES   REMARKS
PHILADELPHIA   CLOUDY    32  14  47 SE6       30.31R WCI  26          
6HR MIN TEMP:  31; 6HR MAX TEMP:  34;                                

NORTH PHILA    MOCLDY    32  17  54 SE7       30.31S WCI  26          
BLUE BELL*     CLOUDY    30  10  43 E3        30.29S                  
DOYLESTOWN     CLOUDY    29   9  43 VRB5      30.27S WCI  24          
QUAKERTOWN*    CLOUDY    28   5  37 CALM      30.26S                  
PERKASIE*      CLOUDY    28   5  37 CALM      30.27S                  
POTTSTOWN      CLOUDY    29   7  39 CALM      30.28S                  
LANCASTER      LGT SNOW  30  23  75 S12       30.25R VSB 1   WCI  20  
COATESVILLE    CLOUDY    28  14  54 SE5       30.24F WCI  23          
READING        CLOUDY    31  11  43 SE7       30.24F WCI  24          
6HR MIN TEMP:  30; 6HR MAX TEMP:  32;                                

ALLENTOWN      CLOUDY    31   3  30 SE6       30.26F WCI  25          
6HR MIN TEMP:  30; 6HR MAX TEMP:  33;                                

MOUNT POCONO   CLOUDY    21   4  47 SE6       30.15F WCI  13          
6HR MIN TEMP:  21; 6HR MAX TEMP:  24;                                

HAZLETON       CLOUDY   N/A N/A N/A SE9       30.17F                  
LEHIGHTON      CLOUDY    30   5  34 CALM      30.25F                  
WILKES BARRE   CLOUDY    28   1  31 CALM      30.19S                  

$$
DEZALL-MDZ008-012-015-019-020-180100-
DELAWARE AND EASTERN MARYLAND
  
CITY           SKY/WX    TMP DP  RH WIND       PRES   REMARKS
WILMINGTON     CLOUDY    32  17  54 E7        30.28F WCI  26          
6HR MIN TEMP:  31; 6HR MAX TEMP:  33;                                

GEORGETOWN     CLOUDY    34  26  72 NE6       30.27S WCI  29          
6HR MIN TEMP:  34; 6HR MAX TEMP:  40;                                

EASTON         CLOUDY    36  27  69 E7        30.28F WCI  30          
ABERDEEN       CLOUDY    32  21  64 NE9       30.26F WCI  24          
PATUXENT       CLOUDY    39  32  76 SE13      30.23  WCI  31          
OCEAN CITY     FAIR      37  28  70 E6        30.27R WCI  32          
WALLOPS ISLAND FAIR      38  30  73 E3        30.26S                  
SALISBURY      CLOUDY    34  29  82 NE6       30.26S WCI  29          

$$
PAZ001-021-NYZ056-072-MDZ011-DCZ001-180100-
OTHER NEARBY LOCATIONS
  
CITY           SKY/WX    TMP DP  RH WIND       PRES   REMARKS
HARRISBURG     LGT SNOW  28  26  92 SE9       30.23F VSB 1   WCI  19  
STATE COLLEGE  FLURRIES  25  21  86 CALM      30.14F                  
WILLIAMSPORT   FLURRIES  28  17  63 VRB5      30.20R WCI  23          
BINGHAMTON     CLOUDY    22   5  48 S5        30.11F WCI  16          
NEW YORK CITY  FAIR      30  12  47 MISG      30.33R                  
BALTIMORE      LGT SNOW  33  27  78 E7        30.24F WCI  27          
WASHINGTON DC  LGT SNOW  35  29  78 E3        30.26R                  

$$